| time (UTC) | temp F | wind direction | speed MPH | gust MPH | rain 1hr in | rain 24hr in | rain mn in | humidity % | barometer mb |
| 20260507232156 | 62 | 0.0 | 0.0 | 0.00 | 0.00 | 0.00 | 34 | 1014.9 | |
| 20260507231652 | 62 | 0.0 | 0.0 | 0.00 | 0.00 | 0.00 | 33 | 1015.0 | |
| 20260507231149 | 62 | 0.0 | 0.0 | 0.00 | 0.00 | 0.00 | 33 | 1015.1 | |
| 20260507230646 | 62 | 0.0 | 0.0 | 0.00 | 0.00 | 0.00 | 34 | 1015.0 | |
| 20260507230143 | 62 | 0.0 | 0.0 | 0.00 | 0.00 | 0.00 | 36 | 1015.1 | |
| 20260507225643 | 62 | 0.0 | 0.0 | 0.00 | 0.00 | 0.00 | 35 | 1014.9 | |
| 20260507225140 | 62 | 0.0 | 0.0 | 0.00 | 0.00 | 0.00 | 34 | 1015.4 | |
| 20260507224635 | 62 | 0.0 | 0.0 | 0.00 | 0.00 | 0.00 | 33 | 1015.4 | |
| 20260507224132 | 62 | 0.0 | 0.0 | 0.00 | 0.00 | 0.00 | 33 | 1015.4 | |
| 20260507223628 | 62 | 0.0 | 0.0 | 0.00 | 0.00 | 0.00 | 33 | 1015.5 | |
| 20260507223125 | 62 | 0.0 | 0.0 | 0.00 | 0.00 | 0.00 | 35 | 1015.5 | |
| 20260507222622 | 62 | 0.0 | 0.0 | 0.00 | 0.00 | 0.00 | 31 | 1015.4 | |
| 20260507222119 | 62 | 0.0 | 0.0 | 0.00 | 0.00 | 0.00 | 34 | 1015.5 | |
| 20260507221614 | 62 | 0.0 | 0.0 | 0.00 | 0.00 | 0.00 | 36 | 1015.2 | |
| 20260507221111 | 62 | 0.0 | 0.0 | 0.00 | 0.00 | 0.00 | 35 | 1015.2 | |
| 20260507220609 | 62 | 0.0 | 0.0 | 0.00 | 0.00 | 0.00 | 34 | 1015.5 | |
| 20260507220106 | 62 | 0.0 | 0.0 | 0.00 | 0.00 | 0.00 | 35 | 1015.4 | |
| 20260507215602 | 62 | 0.0 | 0.0 | 0.00 | 0.00 | 0.00 | 33 | 1015.4 | |
| 20260507215100 | 62 | 0.0 | 0.0 | 0.00 | 0.00 | 0.00 | 34 | 1015.6 | |
| 20260507214557 | 62 | 0.0 | 0.0 | 0.00 | 0.00 | 0.00 | 37 | 1015.5 | |
| 20260507214053 | 62 | 0.0 | 0.0 | 0.00 | 0.00 | 0.00 | 36 | 1015.4 | |
| 20260507213549 | 62 | 0.0 | 0.0 | 0.00 | 0.00 | 0.00 | 35 | 1015.4 | |
| 20260507213047 | 62 | 0.0 | 0.0 | 0.00 | 0.00 | 0.00 | 36 | 1015.4 | |
| 20260507212542 | 62 | 0.0 | 0.0 | 0.00 | 0.00 | 0.00 | 36 | 1015.1 | |
| 20260507212040 | 62 | 0.0 | 0.0 | 0.00 | 0.00 | 0.00 | 34 | 1015.2 | |
| 20260507211536 | 62 | 0.0 | 0.0 | 0.00 | 0.00 | 0.00 | 34 | 1015.0 | |
| 20260507211032 | 62 | 0.0 | 0.0 | 0.00 | 0.00 | 0.00 | 36 | 1015.1 | |
| 20260507210530 | 62 | 0.0 | 0.0 | 0.00 | 0.00 | 0.00 | 36 | 1015.2 | |
| 20260507210026 | 62 | 0.0 | 0.0 | 0.00 | 0.00 | 0.00 | 36 | 1015.2 | |
| 20260507205523 | 62 | 0.0 | 0.0 | 0.00 | 0.00 | 0.00 | 36 | 1015.4 | |
| 20260507205019 | 62 | 0.0 | 0.0 | 0.00 | 0.00 | 0.00 | 34 | 1015.5 | |
| 20260507204516 | 62 | 0.0 | 0.0 | 0.00 | 0.00 | 0.00 | 34 | 1015.6 | |
| 20260507204014 | 62 | 0.0 | 0.0 | 0.00 | 0.00 | 0.00 | 35 | 1015.6 | |
| 20260507203511 | 62 | 0.0 | 0.0 | 0.00 | 0.00 | 0.00 | 36 | 1015.7 | |
| 20260507203008 | 62 | 0.0 | 0.0 | 0.00 | 0.00 | 0.00 | 36 | 1015.6 | |
| 20260507202504 | 62 | 0.0 | 0.0 | 0.00 | 0.00 | 0.00 | 35 | 1015.7 | |
| 20260507202000 | 62 | 0.0 | 0.0 | 0.00 | 0.00 | 0.00 | 34 | 1015.6 | |
| 20260507201455 | 62 | 0.0 | 0.0 | 0.00 | 0.00 | 0.00 | 36 | 1015.4 | |
| 20260507200952 | 62 | 0.0 | 0.0 | 0.00 | 0.00 | 0.00 | 35 | 1015.5 | |
| 20260507200448 | 62 | 0.0 | 0.0 | 0.00 | 0.00 | 0.00 | 36 | 1015.7 | |
| 20260507195944 | 62 | 0.0 | 0.0 | 0.00 | 0.00 | 0.00 | 32 | 1015.8 | |
| 20260507195442 | 62 | 0.0 | 0.0 | 0.00 | 0.00 | 0.00 | 33 | 1016.0 | |
| 20260507194939 | 62 | 0.0 | 0.0 | 0.00 | 0.00 | 0.00 | 34 | 1016.1 | |
| 20260507194435 | 62 | 0.0 | 0.0 | 0.00 | 0.00 | 0.00 | 34 | 1016.0 | |
| 20260507193931 | 62 | 0.0 | 0.0 | 0.00 | 0.00 | 0.00 | 34 | 1015.9 | |
| 20260507193429 | 62 | 0.0 | 0.0 | 0.00 | 0.00 | 0.00 | 31 | 1015.8 | |
| 20260507192925 | 62 | 0.0 | 0.0 | 0.00 | 0.00 | 0.00 | 32 | 1015.9 | |
| 20260507192421 | 62 | 0.0 | 0.0 | 0.00 | 0.00 | 0.00 | 31 | 1016.0 | |
| 20260507191918 | 62 | 0.0 | 0.0 | 0.00 | 0.00 | 0.00 | 32 | 1016.1 | |
| 20260507191414 | 62 | 0.0 | 0.0 | 0.00 | 0.00 | 0.00 | 34 | 1016.2 | |
| 20260507190911 | 62 | 0.0 | 0.0 | 0.00 | 0.00 | 0.00 | 35 | 1016.3 | |
| 20260507190409 | 61 | 0.0 | 0.0 | 0.00 | 0.00 | 0.00 | 35 | 1016.3 | |
| 20260507185908 | 61 | 0.0 | 0.0 | 0.00 | 0.00 | 0.00 | 35 | 1016.2 | |
| 20260507185404 | 61 | 0.0 | 0.0 | 0.00 | 0.00 | 0.00 | 33 | 1016.4 | |
| 20260507184901 | 61 | 0.0 | 0.0 | 0.00 | 0.00 | 0.00 | 33 | 1016.3 | |
| 20260507184400 | 61 | 0.0 | 0.0 | 0.00 | 0.00 | 0.00 | 34 | 1016.1 | |
| 20260507183856 | 60 | 0.0 | 0.0 | 0.00 | 0.00 | 0.00 | 32 | 1016.2 | |
| 20260507183353 | 60 | 0.0 | 0.0 | 0.00 | 0.00 | 0.00 | 33 | 1016.1 | |
| 20260507182851 | 60 | 0.0 | 0.0 | 0.00 | 0.00 | 0.00 | 34 | 1016.3 | |
| 20260507182346 | 60 | 0.0 | 0.0 | 0.00 | 0.00 | 0.00 | 34 | 1016.2 | |
| 20260507181842 | 60 | 0.0 | 0.0 | 0.00 | 0.00 | 0.00 | 36 | 1016.6 | |
| 20260507181338 | 60 | 0.0 | 0.0 | 0.00 | 0.00 | 0.00 | 34 | 1016.3 | |
| 20260507180836 | 60 | 0.0 | 0.0 | 0.00 | 0.00 | 0.00 | 35 | 1016.8 | |
| 20260507180332 | 60 | 0.0 | 0.0 | 0.00 | 0.00 | 0.00 | 33 | 1016.6 | |
| 20260507175828 | 60 | 0.0 | 0.0 | 0.00 | 0.00 | 0.00 | 34 | 1016.5 | |
| 20260507175325 | 60 | 0.0 | 0.0 | 0.00 | 0.00 | 0.00 | 33 | 1016.6 | |
| 20260507174822 | 59 | 0.0 | 0.0 | 0.00 | 0.00 | 0.00 | 37 | 1016.4 | |
| 20260507174320 | 59 | 0.0 | 0.0 | 0.00 | 0.00 | 0.00 | 34 | 1016.7 | |
| 20260507173817 | 59 | 0.0 | 0.0 | 0.00 | 0.00 | 0.00 | 36 | 1016.9 | |
| 20260507173314 | 59 | 0.0 | 0.0 | 0.00 | 0.00 | 0.00 | 32 | 1016.9 | |
| 20260507172811 | 59 | 0.0 | 0.0 | 0.00 | 0.00 | 0.00 | 34 | 1016.9 | |
| 20260507172308 | 59 | 0.0 | 0.0 | 0.00 | 0.00 | 0.00 | 31 | 1017.1 | |
| 20260507171803 | 59 | 0.0 | 0.0 | 0.00 | 0.00 | 0.00 | 33 | 1017.0 | |
| 20260507171301 | 59 | 0.0 | 0.0 | 0.00 | 0.00 | 0.00 | 31 | 1016.9 | |
| 20260507170757 | 59 | 0.0 | 0.0 | 0.00 | 0.00 | 0.00 | 34 | 1017.1 | |
| 20260507170254 | 58 | 0.0 | 0.0 | 0.00 | 0.00 | 0.00 | 32 | 1017.0 | |
| 20260507165750 | 58 | 0.0 | 0.0 | 0.00 | 0.00 | 0.00 | 35 | 1016.8 | |
| 20260507165246 | 58 | 0.0 | 0.0 | 0.00 | 0.00 | 0.00 | 34 | 1017.0 | |
| 20260507164742 | 58 | 0.0 | 0.0 | 0.00 | 0.00 | 0.00 | 34 | 1017.2 | |
| 20260507164239 | 58 | 0.0 | 0.0 | 0.00 | 0.00 | 0.00 | 33 | 1017.1 | |
| 20260507163736 | 58 | 0.0 | 0.0 | 0.00 | 0.00 | 0.00 | 36 | 1017.1 | |
| 20260507163234 | 58 | 0.0 | 0.0 | 0.00 | 0.00 | 0.00 | 32 | 1017.4 | |
| 20260507162730 | 58 | 0.0 | 0.0 | 0.00 | 0.00 | 0.00 | 35 | 1017.4 | |
| 20260507162226 | 58 | 0.0 | 0.0 | 0.00 | 0.00 | 0.00 | 34 | 1017.4 | |
| 20260507161723 | 57 | 0.0 | 0.0 | 0.00 | 0.00 | 0.00 | 34 | 1017.1 | |
| 20260507161219 | 57 | 0.0 | 0.0 | 0.00 | 0.00 | 0.00 | 36 | 1017.4 | |
| 20260507160715 | 57 | 0.0 | 0.0 | 0.00 | 0.00 | 0.00 | 34 | 1017.5 | |
| 20260507160212 | 57 | 0.0 | 0.0 | 0.00 | 0.00 | 0.00 | 36 | 1017.7 | |
| 20260507155708 | 57 | 0.0 | 0.0 | 0.00 | 0.00 | 0.00 | 35 | 1017.5 | |
| 20260507155204 | 57 | 0.0 | 0.0 | 0.00 | 0.00 | 0.00 | 34 | 1017.9 | |
| 20260507154701 | 57 | 0.0 | 0.0 | 0.00 | 0.00 | 0.00 | 34 | 1017.6 | |
| 20260507154159 | 57 | 0.0 | 0.0 | 0.00 | 0.00 | 0.00 | 37 | 1017.7 | |
| 20260507153655 | 57 | 0.0 | 0.0 | 0.00 | 0.00 | 0.00 | 35 | 1017.7 | |
| 20260507153151 | 57 | 0.0 | 0.0 | 0.00 | 0.00 | 0.00 | 33 | 1017.6 | |
| 20260507152648 | 57 | 0.0 | 0.0 | 0.00 | 0.00 | 0.00 | 38 | 1017.4 | |
| 20260507152144 | 57 | 0.0 | 0.0 | 0.00 | 0.00 | 0.00 | 37 | 1017.4 | |
| 20260507151640 | 57 | 0.0 | 0.0 | 0.00 | 0.00 | 0.00 | 38 | 1017.6 | |
| 20260507151137 | 56 | 0.0 | 0.0 | 0.00 | 0.00 | 0.00 | 36 | 1017.7 | |
| 20260507150634 | 56 | 0.0 | 0.0 | 0.00 | 0.00 | 0.00 | 38 | 1017.6 | |
| 20260507150131 | 56 | 0.0 | 0.0 | 0.00 | 0.00 | 0.00 | 37 | 1017.7 | |
| 20260507145626 | 56 | 0.0 | 0.0 | 0.00 | 0.00 | 0.00 | 40 | 1017.7 | |
| 20260507145124 | 56 | 0.0 | 0.0 | 0.00 | 0.00 | 0.00 | 36 | 1017.8 | |
| 20260507144620 | 56 | 0.0 | 0.0 | 0.00 | 0.00 | 0.00 | 36 | 1017.8 | |
| 20260507144119 | 56 | 0.0 | 0.0 | 0.00 | 0.00 | 0.00 | 39 | 1017.6 | |
| 20260507143615 | 55 | 0.0 | 0.0 | 0.00 | 0.00 | 0.00 | 42 | 1017.6 | |
| 20260507143112 | 55 | 0.0 | 0.0 | 0.00 | 0.00 | 0.00 | 41 | 1017.6 | |
| 20260507142607 | 55 | 0.0 | 0.0 | 0.00 | 0.00 | 0.00 | 44 | 1017.6 | |
| 20260507142105 | 55 | 0.0 | 0.0 | 0.00 | 0.00 | 0.00 | 42 | 1017.7 | |
| 20260507141601 | 55 | 0.0 | 0.0 | 0.00 | 0.00 | 0.00 | 46 | 1017.5 | |
| 20260507141057 | 54 | 0.0 | 0.0 | 0.00 | 0.00 | 0.00 | 48 | 1017.7 | |
| 20260507140554 | 54 | 0.0 | 0.0 | 0.00 | 0.00 | 0.00 | 51 | 1017.5 | |
| 20260507140051 | 53 | 0.0 | 0.0 | 0.00 | 0.00 | 0.00 | 51 | 1017.7 | |
| 20260507135548 | 53 | 0.0 | 0.0 | 0.00 | 0.00 | 0.00 | 53 | 1017.7 | |
| 20260507135046 | 53 | 0.0 | 0.0 | 0.00 | 0.00 | 0.00 | 50 | 1017.7 | |
| 20260507134542 | 53 | 0.0 | 0.0 | 0.00 | 0.00 | 0.00 | 54 | 1017.6 | |
| 20260507134038 | 53 | 0.0 | 0.0 | 0.00 | 0.00 | 0.00 | 53 | 1017.5 | |
| 20260507133534 | 52 | 0.0 | 0.0 | 0.00 | 0.00 | 0.00 | 53 | 1017.6 | |
| 20260507133032 | 52 | 0.0 | 0.0 | 0.00 | 0.00 | 0.00 | 57 | 1017.3 | |
| 20260507132528 | 52 | 0.0 | 0.0 | 0.00 | 0.00 | 0.00 | 57 | 1017.4 | |
| 20260507132025 | 51 | 0.0 | 0.0 | 0.00 | 0.00 | 0.00 | 57 | 1017.4 | |
| 20260507131522 | 51 | 0.0 | 0.0 | 0.00 | 0.00 | 0.00 | 61 | 1017.4 | |
| 20260507131019 | 51 | 0.0 | 0.0 | 0.00 | 0.00 | 0.00 | 63 | 1017.6 | |
| 20260507130516 | 50 | 0.0 | 0.0 | 0.00 | 0.00 | 0.00 | 63 | 1017.3 | |
| 20260507130014 | 50 | 0.0 | 0.0 | 0.00 | 0.00 | 0.00 | 63 | 1017.3 | |
| 20260507125512 | 50 | 0.0 | 0.0 | 0.00 | 0.00 | 0.00 | 65 | 1017.4 | |
| 20260507125011 | 49 | 0.0 | 0.0 | 0.00 | 0.00 | 0.00 | 67 | 1017.2 | |
| 20260507124506 | 49 | 0.0 | 0.0 | 0.00 | 0.00 | 0.00 | 68 | 1017.2 | |
| 20260507124004 | 48 | 0.0 | 0.0 | 0.00 | 0.00 | 0.00 | 69 | 1017.2 | |
| 20260507123501 | 48 | 0.0 | 0.0 | 0.00 | 0.00 | 0.00 | 70 | 1017.3 | |
| 20260507122957 | 48 | 0.0 | 0.0 | 0.00 | 0.00 | 0.00 | 70 | 1017.2 | |
| 20260507122453 | 47 | 0.0 | 0.0 | 0.00 | 0.00 | 0.00 | 72 | 1017.3 | |
| 20260507121949 | 47 | 0.0 | 0.0 | 0.00 | 0.00 | 0.00 | 74 | 1017.3 | |
| 20260507121445 | 46 | 0.0 | 0.0 | 0.00 | 0.00 | 0.00 | 76 | 1017.3 | |
| 20260507120941 | 46 | 0.0 | 0.0 | 0.00 | 0.00 | 0.00 | 76 | 1017.1 | |
| 20260507120438 | 46 | 0.0 | 0.0 | 0.00 | 0.00 | 0.00 | 78 | 1017.0 | |
| 20260507115935 | 45 | 0.0 | 0.0 | 0.00 | 0.00 | 0.00 | 79 | 1016.8 | |
| 20260507115430 | 44 | 0.0 | 0.0 | 0.00 | 0.00 | 0.00 | 79 | 1017.1 | |
| 20260507114927 | 44 | 0.0 | 0.0 | 0.00 | 0.00 | 0.00 | 80 | 1017.0 | |
| 20260507114423 | 44 | 0.0 | 0.0 | 0.00 | 0.00 | 0.00 | 80 | 1017.0 | |
| 20260507113920 | 44 | 0.0 | 0.0 | 0.00 | 0.00 | 0.00 | 79 | 1016.9 | |
| 20260507113417 | 44 | 0.0 | 0.0 | 0.00 | 0.00 | 0.00 | 79 | 1017.2 | |
| 20260507112914 | 44 | 0.0 | 0.0 | 0.00 | 0.00 | 0.00 | 79 | 1017.0 | |
| 20260507112412 | 44 | 0.0 | 0.0 | 0.00 | 0.00 | 0.00 | 79 | 1016.8 | |
| 20260507111909 | 44 | 0.0 | 0.0 | 0.00 | 0.00 | 0.00 | 79 | 1017.0 | |
| 20260507111406 | 44 | 0.0 | 0.0 | 0.00 | 0.00 | 0.00 | 79 | 1017.1 | |
| 20260507110902 | 44 | 0.0 | 0.0 | 0.00 | 0.00 | 0.00 | 79 | 1016.9 | |
| 20260507110358 | 44 | 0.0 | 0.0 | 0.00 | 0.00 | 0.00 | 79 | 1016.9 | |
| 20260507105855 | 44 | 0.0 | 0.0 | 0.00 | 0.00 | 0.00 | 79 | 1016.9 | |
| 20260507105352 | 45 | 0.0 | 0.0 | 0.00 | 0.00 | 0.00 | 79 | 1017.0 | |
| 20260507104849 | 45 | 0.0 | 0.0 | 0.00 | 0.00 | 0.00 | 79 | 1017.1 | |
| 20260507104345 | 45 | 0.0 | 0.0 | 0.00 | 0.00 | 0.00 | 78 | 1016.8 | |
| 20260507103841 | 45 | 0.0 | 0.0 | 0.00 | 0.00 | 0.00 | 77 | 1016.9 | |
| 20260507103338 | 45 | 0.0 | 0.0 | 0.00 | 0.00 | 0.00 | 77 | 1016.9 | |
| 20260507102835 | 46 | 0.0 | 0.0 | 0.00 | 0.00 | 0.00 | 77 | 1016.9 | |
| 20260507102331 | 46 | 0.0 | 0.0 | 0.00 | 0.00 | 0.00 | 77 | 1016.9 | |
| 20260507101828 | 46 | 0.0 | 0.0 | 0.00 | 0.00 | 0.00 | 77 | 1017.0 | |
| 20260507101327 | 46 | 0.0 | 0.0 | 0.00 | 0.00 | 0.00 | 77 | 1016.7 | |
| 20260507100825 | 46 | 0.0 | 0.0 | 0.00 | 0.00 | 0.00 | 76 | 1016.9 | |
| 20260507100323 | 46 | 0.0 | 0.0 | 0.00 | 0.00 | 0.00 | 76 | 1017.1 | |
| 20260507095821 | 46 | 0.0 | 0.0 | 0.00 | 0.00 | 0.00 | 76 | 1016.7 | |
| 20260507095317 | 46 | 0.0 | 0.0 | 0.00 | 0.00 | 0.00 | 77 | 1017.0 | |
| 20260507094814 | 46 | 0.0 | 0.0 | 0.00 | 0.00 | 0.00 | 77 | 1016.8 | |
| 20260507094311 | 47 | 0.0 | 0.0 | 0.00 | 0.00 | 0.00 | 78 | 1016.7 | |
| 20260507093808 | 47 | 0.0 | 0.0 | 0.00 | 0.00 | 0.00 | 78 | 1016.7 | |
| 20260507093306 | 47 | 0.0 | 0.0 | 0.00 | 0.00 | 0.00 | 78 | 1016.4 | |
| 20260507092804 | 47 | 0.0 | 0.0 | 0.00 | 0.00 | 0.00 | 78 | 1016.6 | |
| 20260507092300 | 47 | 0.0 | 0.0 | 0.00 | 0.00 | 0.00 | 78 | 1016.6 | |
| 20260507091756 | 47 | 0.0 | 0.0 | 0.00 | 0.00 | 0.00 | 78 | 1016.7 | |
| 20260507091253 | 47 | 0.0 | 0.0 | 0.00 | 0.00 | 0.00 | 79 | 1016.7 | |
| 20260507090753 | 47 | 0.0 | 0.0 | 0.00 | 0.00 | 0.00 | 79 | 1016.8 | |
| 20260507090250 | 48 | 0.0 | 0.0 | 0.00 | 0.00 | 0.00 | 79 | 1016.5 | |
| 20260507085747 | 48 | 0.0 | 0.0 | 0.00 | 0.00 | 0.00 | 80 | 1016.4 | |
| 20260507085244 | 47 | 0.0 | 0.0 | 0.00 | 0.00 | 0.00 | 80 | 1016.5 | |
| 20260507084742 | 48 | 0.0 | 0.0 | 0.00 | 0.00 | 0.00 | 81 | 1016.1 | |
| 20260507084238 | 47 | 0.0 | 0.0 | 0.00 | 0.00 | 0.00 | 82 | 1016.4 | |
| 20260507083735 | 47 | 0.0 | 0.0 | 0.00 | 0.00 | 0.00 | 82 | 1016.4 | |
| 20260507083232 | 47 | 0.0 | 0.0 | 0.00 | 0.00 | 0.00 | 83 | 1016.3 | |
| 20260507082728 | 47 | 0.0 | 0.0 | 0.00 | 0.00 | 0.00 | 83 | 1016.3 | |
| 20260507082224 | 47 | 0.0 | 0.0 | 0.00 | 0.00 | 0.00 | 82 | 1016.2 | |
| 20260507081721 | 47 | 0.0 | 0.0 | 0.00 | 0.00 | 0.00 | 81 | 1016.3 | |
| 20260507081217 | 47 | 0.0 | 0.0 | 0.00 | 0.00 | 0.00 | 81 | 1016.1 | |
| 20260507080714 | 47 | 0.0 | 0.0 | 0.00 | 0.00 | 0.00 | 81 | 1016.3 | |
| 20260507080210 | 47 | 0.0 | 0.0 | 0.00 | 0.00 | 0.00 | 80 | 1016.1 | |
| 20260507075705 | 47 | 0.0 | 0.0 | 0.00 | 0.00 | 0.00 | 80 | 1016.2 | |
| 20260507075202 | 48 | 0.0 | 0.0 | 0.00 | 0.00 | 0.00 | 79 | 1015.9 | |
| 20260507074658 | 48 | 0.0 | 0.0 | 0.00 | 0.00 | 0.00 | 79 | 1016.1 | |
| 20260507074157 | 48 | 0.0 | 0.0 | 0.00 | 0.00 | 0.00 | 79 | 1015.8 | |
| 20260507073653 | 48 | 0.0 | 0.0 | 0.00 | 0.00 | 0.00 | 79 | 1016.0 | |
| 20260507073149 | 48 | 0.0 | 0.0 | 0.00 | 0.00 | 0.00 | 80 | 1015.8 | |
| 20260507072647 | 48 | 0.0 | 0.0 | 0.00 | 0.00 | 0.00 | 79 | 1015.8 | |
| 20260507072144 | 49 | 0.0 | 0.0 | 0.00 | 0.00 | 0.00 | 79 | 1015.8 | |
| 20260507071642 | 49 | 0.0 | 0.0 | 0.00 | 0.00 | 0.00 | 79 | 1015.7 | |
| 20260507071138 | 49 | 0.0 | 0.0 | 0.00 | 0.00 | 0.00 | 79 | 1015.9 | |
| 20260507070635 | 49 | 0.0 | 0.0 | 0.00 | 0.00 | 0.00 | 79 | 1015.8 | |
| 20260507070132 | 49 | 0.0 | 0.0 | 0.00 | 0.00 | 0.00 | 79 | 1016.0 | |
| 20260507065628 | 49 | 0.0 | 0.0 | 0.00 | 0.00 | 0.00 | 79 | 1015.9 | |
| 20260507065125 | 49 | 0.0 | 0.0 | 0.00 | 0.00 | 0.00 | 79 | 1015.7 | |
| 20260507064623 | 49 | 0.0 | 0.0 | 0.00 | 0.00 | 0.00 | 79 | 1015.9 | |
| 20260507064121 | 49 | 0.0 | 0.0 | 0.00 | 0.00 | 0.00 | 79 | 1016.0 | |
| 20260507063618 | 49 | 0.0 | 0.0 | 0.00 | 0.00 | 0.00 | 79 | 1016.1 | |
| 20260507063115 | 50 | 0.0 | 0.0 | 0.00 | 0.00 | 0.00 | 79 | 1016.0 | |
| 20260507062612 | 50 | 0.0 | 0.0 | 0.00 | 0.00 | 0.00 | 79 | 1016.1 | |
| 20260507062110 | 50 | 0.0 | 0.0 | 0.00 | 0.00 | 0.00 | 79 | 1016.2 | |
| 20260507061607 | 50 | 0.0 | 0.0 | 0.00 | 0.00 | 0.00 | 79 | 1016.1 | |
| 20260507061105 | 50 | 0.0 | 0.0 | 0.00 | 0.00 | 0.00 | 79 | 1016.1 | |
| 20260507060603 | 50 | 0.0 | 0.0 | 0.00 | 0.00 | 0.00 | 78 | 1016.0 | |
| 20260507060059 | 50 | 0.0 | 0.0 | 0.00 | 0.00 | 0.00 | 78 | 1016.1 | |
| 20260507055554 | 50 | 0.0 | 0.0 | 0.00 | 0.00 | 0.00 | 79 | 1016.1 | |
| 20260507055051 | 51 | 0.0 | 0.0 | 0.00 | 0.00 | 0.00 | 79 | 1016.0 | |
| 20260507054547 | 51 | 0.0 | 0.0 | 0.00 | 0.00 | 0.00 | 78 | 1016.1 | |
| 20260507054044 | 51 | 0.0 | 0.0 | 0.00 | 0.00 | 0.00 | 77 | 1016.2 | |
| 20260507053542 | 51 | 0.0 | 0.0 | 0.00 | 0.00 | 0.00 | 77 | 1016.5 | |
| 20260507053040 | 51 | 0.0 | 0.0 | 0.00 | 0.00 | 0.00 | 77 | 1016.3 | |
| 20260507052538 | 51 | 0.0 | 0.0 | 0.00 | 0.00 | 0.00 | 76 | 1016.4 | |
| 20260507052034 | 51 | 0.0 | 0.0 | 0.00 | 0.00 | 0.00 | 76 | 1016.4 | |
| 20260507051532 | 51 | 0.0 | 0.0 | 0.00 | 0.00 | 0.00 | 76 | 1016.2 | |
| 20260507051029 | 51 | 0.0 | 0.0 | 0.00 | 0.00 | 0.00 | 76 | 1016.3 | |
| 20260507050525 | 51 | 0.0 | 0.0 | 0.00 | 0.00 | 0.00 | 76 | 1016.2 | |
| 20260507050022 | 51 | 0.0 | 0.0 | 0.00 | 0.08 | 0.08 | 76 | 1016.3 | |
| 20260507045518 | 51 | 0.0 | 0.0 | 0.00 | 0.08 | 0.08 | 76 | 1016.0 | |
| 20260507045016 | 51 | 0.0 | 0.0 | 0.00 | 0.08 | 0.08 | 75 | 1016.1 | |
| 20260507044512 | 51 | 0.0 | 0.0 | 0.00 | 0.08 | 0.08 | 74 | 1016.1 | |
| 20260507044009 | 52 | 0.0 | 0.0 | 0.00 | 0.08 | 0.08 | 74 | 1016.3 | |
| 20260507043505 | 52 | 0.0 | 0.0 | 0.00 | 0.08 | 0.08 | 73 | 1016.1 | |
| 20260507043002 | 52 | 0.0 | 0.0 | 0.00 | 0.08 | 0.08 | 73 | 1016.0 | |
| 20260507042458 | 52 | 0.0 | 0.0 | 0.00 | 0.08 | 0.08 | 73 | 1015.8 | |
| 20260507041954 | 52 | 0.0 | 0.0 | 0.00 | 0.08 | 0.08 | 73 | 1016.0 | |
| 20260507041451 | 52 | 0.0 | 0.0 | 0.00 | 0.08 | 0.08 | 73 | 1016.1 | |
| 20260507040948 | 52 | 0.0 | 0.0 | 0.00 | 0.08 | 0.08 | 73 | 1015.6 | |
| 20260507040443 | 52 | 0.0 | 0.0 | 0.00 | 0.08 | 0.08 | 74 | 1015.7 | |
| 20260507035940 | 52 | 0.0 | 0.0 | 0.00 | 0.08 | 0.08 | 74 | 1015.7 | |
| 20260507035436 | 52 | 0.0 | 0.0 | 0.00 | 0.08 | 0.08 | 75 | 1015.7 | |
| 20260507034933 | 52 | 0.0 | 0.0 | 0.00 | 0.08 | 0.08 | 74 | 1016.0 | |
| 20260507034430 | 52 | 0.0 | 0.0 | 0.00 | 0.08 | 0.08 | 75 | 1016.2 | |
| 20260507033928 | 52 | 0.0 | 0.0 | 0.00 | 0.08 | 0.08 | 76 | 1015.7 | |
| 20260507033426 | 52 | 0.0 | 0.0 | 0.00 | 0.08 | 0.08 | 75 | 1015.9 | |
| 20260507032922 | 52 | 0.0 | 0.0 | 0.00 | 0.08 | 0.08 | 75 | 1015.9 | |
| 20260507032420 | 52 | 0.0 | 0.0 | 0.00 | 0.08 | 0.08 | 74 | 1016.0 | |
| 20260507031915 | 52 | 0.0 | 0.0 | 0.00 | 0.08 | 0.08 | 73 | 1016.3 | |
| 20260507031412 | 52 | 0.0 | 0.0 | 0.00 | 0.08 | 0.08 | 73 | 1016.3 | |
| 20260507030909 | 52 | 0.0 | 0.0 | 0.00 | 0.08 | 0.08 | 73 | 1016.2 | |
| 20260507030406 | 52 | 0.0 | 0.0 | 0.00 | 0.08 | 0.08 | 72 | 1016.3 | |
| 20260507025903 | 52 | 0.0 | 0.0 | 0.00 | 0.08 | 0.08 | 72 | 1016.3 | |
| 20260507025401 | 53 | 0.0 | 0.0 | 0.00 | 0.08 | 0.08 | 71 | 1016.2 | |
| 20260507024858 | 53 | 0.0 | 0.0 | 0.00 | 0.08 | 0.08 | 71 | 1016.4 | |
| 20260507024355 | 53 | 0.0 | 0.0 | 0.00 | 0.08 | 0.08 | 71 | 1016.1 | |
| 20260507023851 | 53 | 0.0 | 0.0 | 0.00 | 0.08 | 0.08 | 70 | 1016.2 | |
| 20260507023348 | 53 | 0.0 | 0.0 | 0.00 | 0.08 | 0.08 | 69 | 1016.5 | |
| 20260507022845 | 53 | 0.0 | 0.0 | 0.00 | 0.08 | 0.08 | 69 | 1016.2 | |
| 20260507022342 | 53 | 0.0 | 0.0 | 0.00 | 0.08 | 0.08 | 67 | 1016.0 | |
| 20260507021838 | 54 | 0.0 | 0.0 | 0.00 | 0.08 | 0.08 | 66 | 1016.0 | |
| 20260507021333 | 54 | 0.0 | 0.0 | 0.00 | 0.08 | 0.08 | 65 | 1016.0 | |
| 20260507020831 | 54 | 0.0 | 0.0 | 0.00 | 0.08 | 0.08 | 65 | 1015.7 | |
| 20260507020328 | 55 | 0.0 | 0.0 | 0.00 | 0.08 | 0.08 | 64 | 1015.9 | |
| 20260507015825 | 55 | 0.0 | 0.0 | 0.00 | 0.08 | 0.08 | 63 | 1015.7 | |
| 20260507015323 | 55 | 0.0 | 0.0 | 0.00 | 0.08 | 0.08 | 63 | 1015.7 | |
| 20260507014820 | 56 | 0.0 | 0.0 | 0.00 | 0.08 | 0.08 | 62 | 1015.8 | |
| 20260507014316 | 56 | 0.0 | 0.0 | 0.00 | 0.08 | 0.08 | 61 | 1015.5 | |
| 20260507013812 | 56 | 0.0 | 0.0 | 0.00 | 0.08 | 0.08 | 60 | 1015.5 | |
| 20260507013310 | 57 | 0.0 | 0.0 | 0.00 | 0.08 | 0.08 | 60 | 1015.1 | |
| 20260507012807 | 57 | 0.0 | 0.0 | 0.00 | 0.08 | 0.08 | 59 | 1015.2 | |
| 20260507012306 | 57 | 0.0 | 0.0 | 0.00 | 0.08 | 0.08 | 58 | 1015.2 | |
| 20260507011800 | 57 | 0.0 | 0.0 | 0.00 | 0.08 | 0.08 | 58 | 1015.0 | |
| 20260507011257 | 57 | 0.0 | 0.0 | 0.00 | 0.08 | 0.08 | 58 | 1015.0 | |
| 20260507010756 | 57 | 0.0 | 0.0 | 0.00 | 0.08 | 0.08 | 57 | 1014.8 | |
| 20260507010252 | 58 | 0.0 | 0.0 | 0.00 | 0.08 | 0.08 | 57 | 1014.6 | |
| 20260507005750 | 58 | 0.0 | 0.0 | 0.00 | 0.08 | 0.08 | 56 | 1014.6 | |
| 20260507005246 | 58 | 0.0 | 0.0 | 0.00 | 0.08 | 0.08 | 56 | 1014.8 | |
| 20260507004743 | 58 | 0.0 | 0.0 | 0.00 | 0.08 | 0.08 | 55 | 1015.0 | |
| 20260507004241 | 58 | 0.0 | 0.0 | 0.00 | 0.08 | 0.08 | 54 | 1015.0 | |
| 20260507003736 | 59 | 0.0 | 0.0 | 0.00 | 0.08 | 0.08 | 55 | 1014.8 | |
| 20260507003232 | 59 | 0.0 | 0.0 | 0.00 | 0.08 | 0.08 | 53 | 1014.7 | |
| 20260507002728 | 59 | 0.0 | 0.0 | 0.00 | 0.08 | 0.08 | 53 | 1014.7 | |
| 20260507002224 | 59 | 0.0 | 0.0 | 0.00 | 0.08 | 0.08 | 55 | 1014.7 | |
| 20260507001721 | 59 | 0.0 | 0.0 | 0.00 | 0.08 | 0.08 | 55 | 1014.5 | |
| 20260507001219 | 59 | 0.0 | 0.0 | 0.00 | 0.08 | 0.08 | 54 | 1014.6 | |
| 20260507000715 | 59 | 0.0 | 0.0 | 0.00 | 0.08 | 0.08 | 55 | 1014.5 | |
| 20260507000212 | 59 | 0.0 | 0.0 | 0.00 | 0.08 | 0.08 | 54 | 1014.6 | |
| 20260506235708 | 59 | 0.0 | 0.0 | 0.00 | 0.08 | 0.08 | 53 | 1014.2 | |
| 20260506235203 | 59 | 0.0 | 0.0 | 0.00 | 0.08 | 0.08 | 54 | 1014.3 | |
| 20260506234700 | 59 | 0.0 | 0.0 | 0.00 | 0.08 | 0.08 | 56 | 1014.6 | |
| 20260506234157 | 59 | 0.0 | 0.0 | 0.00 | 0.08 | 0.08 | 57 | 1014.5 | |
| 20260506233655 | 59 | 0.0 | 0.0 | 0.00 | 0.08 | 0.08 | 55 | 1014.5 | |
| 20260506233151 | 59 | 0.0 | 0.0 | 0.00 | 0.08 | 0.08 | 56 | 1014.5 | |
| 20260506232648 | 59 | 0.0 | 0.0 | 0.00 | 0.08 | 0.08 | 56 | 1014.7 |